GW1539 Weather Reports


time (UTC)temp
C
wind
direction
speed
KPH
gust
KPH
rain 1hr
cm
rain 24hr
cm
rain mn
cm
humidity
%
barometer
mb
20260510111622 12 234 0.0 0.0 0.00 0.13 0.03 81 1014.3
20260510104621 12 231 0.0 0.0 0.00 0.13 0.03 85 1014.4
20260510101623 12 227 0.0 0.0 0.00 0.13 0.03 87 1014.3
20260510100115 12 255 0.0 0.0 0.03 0.13 0.03 87 1014.4
20260510094616 12 267 0.0 0.0 0.03 0.13 0.03 85 1014.5
20260510093122 12 263 0.0 0.0 0.03 0.13 0.03 84 1014.5
20260510090124 12 203 0.0 0.0 0.00 0.10 0.00 85 1014.3
20260510084624 12 251 0.0 0.0 0.00 0.10 0.00 84 1014.4
20260510081630 13 203 0.0 0.0 0.00 0.10 0.00 84 1014.2
20260510080121 13 229 0.0 0.0 0.00 0.10 0.00 84 1014.2
20260510073124 13 218 0.0 0.0 0.00 0.10 0.00 84 1014.2
20260510071613 13 217 0.0 0.0 0.00 0.10 0.00 85 1014.2
20260510064622 11 217 0.0 0.0 0.00 0.10 0.00 96 1014.3
20260510063115 11 217 0.0 0.0 0.00 0.10 0.00 96 1014.4
20260510060124 10 216 0.0 0.0 0.00 0.10 0.00 96 1014.4
20260510054623 9 216 0.0 0.0 0.00 0.10 0.00 96 1014.4
20260510053120 8 216 0.0 0.0 0.00 0.10 0.00 96 1014.6
20260510050124 8 216 0.0 0.0 0.00 0.10 0.00 96 1014.8
20260510043120 7 216 0.0 0.0 0.00 0.10 0.00 96 1014.8
20260510040124 7 216 0.0 0.0 0.00 0.10 0.00 96 1015.2
20260510034621 7 216 0.0 0.0 0.00 0.10 0.00 96 1015.2
20260510031622 6 216 0.0 0.0 0.00 0.10 0.00 96 1015.3
20260510030121 6 216 0.0 0.0 0.00 0.10 0.00 96 1015.6
20260510023117 6 216 0.0 0.0 0.00 0.10 0.00 96 1015.9
20260510020123 6 216 0.0 0.0 0.00 0.10 0.00 96 1015.9
20260510014620 6 216 0.0 0.0 0.00 0.10 0.00 95 1015.8
20260510013118 6 216 0.0 0.0 0.00 0.10 0.00 95 1016.2
20260510010125 7 216 0.0 0.0 0.00 0.10 0.00 95 1016.2
20260510003125 7 216 0.0 0.0 0.00 0.10 0.00 95 1016.2
20260510000118 7 216 0.0 0.0 0.00 0.10 0.00 95 1016.5
20260509233120 7 216 0.0 0.0 0.00 0.10 0.00 95 1016.7
20260509231620 7 216 0.0 0.0 0.00 0.10 0.00 94 1016.5
20260509224621 7 216 0.0 0.0 0.00 0.10 0.00 94 1016.8
20260509223114 8 216 0.0 0.0 0.00 0.10 0.00 94 1016.9
20260509220149 8 216 0.0 0.0 0.00 0.10 0.00 94 1017.0
20260509214626 8 216 0.0 0.0 0.00 0.10 0.10 94 1016.9
20260509211623 8 216 0.0 0.0 0.00 0.10 0.10 94 1017.0
20260509210115 8 216 0.0 0.0 0.00 0.10 0.10 94 1016.9
20260509203116 9 216 0.0 0.0 0.00 0.10 0.10 94 1016.7
20260509200122 9 216 0.0 0.0 0.00 0.10 0.10 93 1016.8
20260509193124 9 216 0.0 0.0 0.00 0.10 0.10 93 1016.3
20260509191622 10 216 0.0 0.0 0.00 0.10 0.10 92 1016.3
20260509190120 10 216 0.0 0.0 0.00 0.10 0.10 92 1016.2
20260509184617 10 216 0.0 0.0 0.00 0.10 0.10 91 1016.2
20260509181620 11 216 0.0 0.0 0.00 0.10 0.10 91 1016.0
20260509174627 12 216 0.0 1.6 0.00 0.10 0.10 91 1016.1
20260509171621 12 216 0.0 1.6 0.00 0.10 0.10 89 1016.0
20260509164616 13 215 0.0 4.8 0.00 0.10 0.10 90 1016.0
20260509161623 13 215 0.0 3.2 0.00 0.10 0.10 89 1016.1
20260509154625 13 184 1.6 6.4 0.00 0.10 0.10 90 1016.2
20260509151621 13 232 0.0 6.4 0.05 0.10 0.10 88 1016.4
20260509144620 13 272 0.0 4.8 0.10 0.10 0.10 89 1016.4
20260509141619 15 240 0.0 6.4 0.05 0.05 0.05 82 1016.4
20260509134621 16 268 4.8 8.0 0.00 0.00 0.00 65 1016.2
20260509133118 17 224 4.8 9.7 0.00 0.00 0.00 63 1016.1
20260509130121 18 245 4.8 14.5 0.00 0.00 0.00 62 1016.1
20260509123122 18 314 1.6 14.5 0.00 0.00 0.00 64 1016.2
20260509121634 17 263 3.2 16.1 0.00 0.00 0.00 61 1016.2
20260509114621 17 227 6.4 14.5 0.00 0.00 0.00 62 1016.4